| time (UTC) | temp F | wind direction | speed MPH | gust MPH | rain 1hr in | rain 24hr in | rain mn in | humidity % | barometer mb |
| 20260901040318 | 65 | 274 | 0.0 | 0.0 | 0.00 | 0.00 | 0.00 | 88 | 1021.1 |
| 20260901035818 | 65 | 274 | 0.0 | 0.0 | 0.00 | 0.00 | 0.00 | 88 | 1021.2 |
| 20260901035319 | 65 | 275 | 0.0 | 0.0 | 0.00 | 0.00 | 0.00 | 88 | 1021.1 |
| 20260901034319 | 65 | 274 | 0.0 | 0.0 | 0.00 | 0.00 | 0.00 | 88 | 1021.1 |
| 20260901033819 | 65 | 274 | 0.0 | 2.0 | 0.00 | 0.00 | 0.00 | 88 | 1021.1 |
| 20260901033320 | 65 | 275 | 0.0 | 2.0 | 0.00 | 0.00 | 0.00 | 88 | 1021.1 |
| 20260901032818 | 65 | 271 | 0.0 | 2.0 | 0.00 | 0.00 | 0.00 | 88 | 1021.1 |
| 20260901032318 | 65 | 270 | 0.0 | 4.0 | 0.00 | 0.00 | 0.00 | 88 | 1021.1 |
| 20260901031818 | 65 | 271 | 0.0 | 4.0 | 0.00 | 0.00 | 0.00 | 87 | 1021.1 |
| 20260901031319 | 65 | 270 | 0.0 | 0.0 | 0.00 | 0.00 | 0.00 | 87 | 1021.1 |
| 20260901030818 | 65 | 260 | 0.0 | 0.0 | 0.00 | 0.00 | 0.00 | 87 | 1021.0 |
| 20260901030331 | 65 | 259 | 0.0 | 0.0 | 0.00 | 0.00 | 0.00 | 87 | 1021.0 |
| 20260901025817 | 65 | 259 | 0.0 | 0.0 | 0.00 | 0.00 | 0.00 | 87 | 1021.0 |
| 20260901025317 | 65 | 259 | 0.0 | 0.0 | 0.00 | 0.00 | 0.00 | 87 | 1021.1 |
| 20260901024818 | 65 | 259 | 0.0 | 0.0 | 0.00 | 0.00 | 0.00 | 87 | 1021.1 |
| 20260901024311 | 65 | 265 | 0.0 | 3.0 | 0.00 | 0.00 | 0.00 | 86 | 1021.0 |
| 20260901023806 | 66 | 265 | 0.0 | 3.0 | 0.00 | 0.00 | 0.00 | 86 | 1021.1 |
| 20260901023259 | 66 | 275 | 0.0 | 3.0 | 0.00 | 0.00 | 0.00 | 85 | 1021.1 |
| 20260901022753 | 66 | 273 | 0.0 | 1.0 | 0.00 | 0.00 | 0.00 | 85 | 1021.0 |
| 20260901021742 | 66 | 270 | 0.0 | 0.0 | 0.00 | 0.00 | 0.00 | 85 | 1021.1 |
| 20260901021234 | 67 | 270 | 0.0 | 0.0 | 0.00 | 0.00 | 0.00 | 85 | 1021.0 |
| 20260901020729 | 67 | 270 | 0.0 | 0.0 | 0.00 | 0.00 | 0.00 | 85 | 1021.1 |
| 20260901020223 | 67 | 271 | 0.0 | 0.0 | 0.00 | 0.00 | 0.00 | 85 | 1021.0 |
| 20260901015721 | 67 | 271 | 0.0 | 0.0 | 0.00 | 0.00 | 0.00 | 85 | 1020.9 |
| 20260901015211 | 67 | 271 | 0.0 | 0.0 | 0.00 | 0.00 | 0.00 | 85 | 1020.9 |
| 20260901014705 | 67 | 271 | 0.0 | 2.0 | 0.00 | 0.00 | 0.00 | 84 | 1021.0 |
| 20260901014159 | 67 | 271 | 0.0 | 2.0 | 0.00 | 0.00 | 0.00 | 84 | 1020.9 |
| 20260901013655 | 67 | 274 | 0.0 | 0.0 | 0.00 | 0.00 | 0.00 | 83 | 1020.9 |
| 20260901013153 | 67 | 274 | 0.0 | 0.0 | 0.00 | 0.00 | 0.00 | 84 | 1020.8 |
| 20260901012652 | 67 | 274 | 0.0 | 0.0 | 0.00 | 0.00 | 0.00 | 84 | 1020.9 |
| 20260901012151 | 67 | 275 | 0.0 | 0.0 | 0.00 | 0.00 | 0.00 | 83 | 1020.9 |
| 20260901011652 | 68 | 275 | 0.0 | 2.0 | 0.00 | 0.00 | 0.00 | 83 | 1020.8 |
| 20260901011150 | 68 | 275 | 0.0 | 3.0 | 0.00 | 0.00 | 0.00 | 82 | 1020.9 |
| 20260901010648 | 68 | 276 | 0.0 | 3.0 | 0.00 | 0.00 | 0.00 | 82 | 1020.8 |
| 20260901010145 | 69 | 276 | 0.0 | 2.0 | 0.00 | 0.00 | 0.00 | 81 | 1020.8 |
| 20260901005646 | 69 | 267 | 0.0 | 0.0 | 0.00 | 0.00 | 0.00 | 81 | 1020.8 |
| 20260901005144 | 69 | 266 | 0.0 | 0.0 | 0.00 | 0.00 | 0.00 | 80 | 1020.8 |
| 20260901004643 | 69 | 263 | 0.0 | 0.0 | 0.00 | 0.00 | 0.00 | 80 | 1020.8 |
| 20260901004142 | 69 | 263 | 0.0 | 0.0 | 0.00 | 0.00 | 0.00 | 80 | 1020.8 |
| 20260901003644 | 69 | 263 | 0.0 | 4.0 | 0.00 | 0.00 | 0.00 | 80 | 1020.8 |
| 20260901003140 | 70 | 263 | 0.0 | 4.0 | 0.00 | 0.00 | 0.00 | 79 | 1020.8 |
| 20260901002639 | 70 | 274 | 0.0 | 1.0 | 0.00 | 0.00 | 0.00 | 79 | 1020.8 |
| 20260901002136 | 70 | 276 | 0.0 | 0.0 | 0.00 | 0.00 | 0.00 | 79 | 1020.8 |
| 20260901001633 | 70 | 276 | 0.0 | 0.0 | 0.00 | 0.00 | 0.00 | 79 | 1020.8 |
| 20260901000631 | 70 | 276 | 0.0 | 2.0 | 0.00 | 0.00 | 0.00 | 79 | 1020.7 |
| 20260901000130 | 70 | 276 | 0.0 | 2.0 | 0.00 | 0.00 | 0.00 | 79 | 1020.8 |
| 20260831235626 | 70 | 272 | 0.0 | 2.0 | 0.00 | 0.00 | 0.00 | 78 | 1020.8 |
| 20260831235121 | 70 | 271 | 0.0 | 0.0 | 0.00 | 0.00 | 0.00 | 78 | 1020.7 |
| 20260831234614 | 71 | 272 | 0.0 | 1.0 | 0.00 | 0.00 | 0.00 | 78 | 1020.9 |
| 20260831234108 | 71 | 273 | 0.0 | 3.0 | 0.00 | 0.00 | 0.00 | 78 | 1020.9 |
| 20260831233601 | 71 | 283 | 0.0 | 3.0 | 0.00 | 0.00 | 0.00 | 78 | 1020.7 |
| 20260831233058 | 71 | 278 | 0.0 | 0.0 | 0.00 | 0.00 | 0.00 | 78 | 1020.8 |
| 20260831232057 | 71 | 279 | 0.0 | 3.0 | 0.00 | 0.00 | 0.00 | 77 | 1020.8 |
| 20260831231555 | 71 | 273 | 0.0 | 0.0 | 0.00 | 0.00 | 0.00 | 77 | 1020.7 |
| 20260831231107 | 71 | 273 | 0.0 | 0.0 | 0.00 | 0.00 | 0.00 | 77 | 1020.8 |
| 20260831225548 | 71 | 273 | 0.0 | 0.0 | 0.00 | 0.00 | 0.00 | 76 | 1020.7 |
| 20260831224548 | 72 | 274 | 0.0 | 3.0 | 0.00 | 0.00 | 0.00 | 76 | 1020.8 |
| 20260831223547 | 72 | 274 | 0.0 | 3.0 | 0.00 | 0.00 | 0.00 | 74 | 1020.7 |
| 20260831223046 | 72 | 277 | 0.0 | 0.0 | 0.00 | 0.00 | 0.00 | 74 | 1020.6 |
| 20260831222044 | 73 | 280 | 0.0 | 2.0 | 0.00 | 0.00 | 0.00 | 73 | 1020.6 |
| 20260831221540 | 73 | 271 | 0.0 | 2.0 | 0.00 | 0.00 | 0.00 | 72 | 1020.6 |
| 20260831221046 | 73 | 273 | 0.0 | 1.0 | 0.00 | 0.00 | 0.00 | 72 | 1020.7 |
| 20260831220541 | 74 | 271 | 0.0 | 2.0 | 0.00 | 0.00 | 0.00 | 72 | 1020.5 |
| 20260831214525 | 75 | 266 | 0.0 | 3.0 | 0.00 | 0.00 | 0.00 | 69 | 1020.3 |
| 20260831214019 | 75 | 267 | 0.0 | 3.0 | 0.00 | 0.00 | 0.00 | 68 | 1020.3 |
| 20260831213007 | 76 | 277 | 0.0 | 2.0 | 0.00 | 0.00 | 0.00 | 68 | 1020.3 |
| 20260831212501 | 76 | 276 | 0.0 | 2.0 | 0.00 | 0.00 | 0.00 | 68 | 1020.2 |
| 20260831212007 | 76 | 269 | 0.0 | 2.0 | 0.00 | 0.00 | 0.00 | 68 | 1020.2 |
| 20260831211449 | 76 | 268 | 0.0 | 3.0 | 0.00 | 0.00 | 0.00 | 68 | 1020.0 |
| 20260831210441 | 76 | 274 | 0.0 | 1.0 | 0.00 | 0.00 | 0.00 | 67 | 1020.2 |
| 20260831205931 | 77 | 278 | 0.0 | 1.0 | 0.00 | 0.00 | 0.00 | 66 | 1020.2 |
| 20260831205426 | 77 | 270 | 0.0 | 3.0 | 0.00 | 0.00 | 0.00 | 66 | 1019.9 |
| 20260831204924 | 77 | 272 | 0.0 | 3.0 | 0.00 | 0.00 | 0.00 | 65 | 1019.9 |
| 20260831204425 | 77 | 276 | 0.0 | 1.0 | 0.00 | 0.00 | 0.00 | 65 | 1019.8 |
| 20260831203925 | 77 | 274 | 0.0 | 1.0 | 0.00 | 0.00 | 0.00 | 65 | 1019.8 |
| 20260831203422 | 77 | 285 | 0.0 | 3.0 | 0.00 | 0.00 | 0.00 | 65 | 1019.7 |
| 20260831202923 | 77 | 280 | 0.0 | 3.0 | 0.00 | 0.00 | 0.00 | 65 | 1019.6 |
| 20260831202421 | 78 | 259 | 0.0 | 2.0 | 0.00 | 0.00 | 0.00 | 64 | 1019.5 |
| 20260831201919 | 78 | 259 | 0.0 | 2.0 | 0.00 | 0.00 | 0.00 | 64 | 1019.5 |
| 20260831201422 | 78 | 268 | 0.0 | 1.0 | 0.00 | 0.00 | 0.00 | 63 | 1019.5 |
| 20260831200419 | 79 | 268 | 0.0 | 1.0 | 0.00 | 0.00 | 0.00 | 61 | 1019.5 |
| 20260831195921 | 80 | 297 | 0.0 | 0.0 | 0.00 | 0.00 | 0.00 | 61 | 1019.5 |
| 20260831195418 | 80 | 314 | 0.0 | 0.0 | 0.00 | 0.00 | 0.00 | 60 | 1019.4 |
| 20260831194916 | 80 | 314 | 0.0 | 0.0 | 0.00 | 0.00 | 0.00 | 60 | 1019.3 |
| 20260831194414 | 80 | 314 | 0.0 | 0.0 | 0.00 | 0.00 | 0.00 | 60 | 1019.3 |
| 20260831193912 | 80 | 316 | 0.0 | 0.0 | 0.00 | 0.00 | 0.00 | 60 | 1019.3 |
| 20260831192921 | 81 | 314 | 0.0 | 0.0 | 0.00 | 0.00 | 0.00 | 59 | 1019.3 |
| 20260831192408 | 81 | 314 | 0.0 | 0.0 | 0.00 | 0.00 | 0.00 | 59 | 1019.1 |
| 20260831191905 | 81 | 314 | 0.0 | 0.0 | 0.00 | 0.00 | 0.00 | 58 | 1019.1 |
| 20260831191406 | 81 | 314 | 0.0 | 0.0 | 0.00 | 0.00 | 0.00 | 58 | 1019.0 |
| 20260831190904 | 82 | 314 | 0.0 | 0.0 | 0.00 | 0.00 | 0.00 | 57 | 1019.0 |
| 20260831190402 | 82 | 314 | 0.0 | 0.0 | 0.00 | 0.00 | 0.00 | 56 | 1019.0 |
| 20260831185859 | 82 | 314 | 0.0 | 0.0 | 0.00 | 0.00 | 0.00 | 56 | 1018.9 |
| 20260831185357 | 82 | 314 | 0.0 | 0.0 | 0.00 | 0.00 | 0.00 | 55 | 1018.9 |
| 20260831184855 | 82 | 319 | 0.0 | 0.0 | 0.00 | 0.00 | 0.00 | 55 | 1018.8 |
| 20260831184353 | 83 | 319 | 0.0 | 0.0 | 0.00 | 0.00 | 0.00 | 55 | 1018.7 |
| 20260831183852 | 83 | 320 | 0.0 | 0.0 | 0.00 | 0.00 | 0.00 | 54 | 1018.7 |
| 20260831183351 | 83 | 320 | 0.0 | 0.0 | 0.00 | 0.00 | 0.00 | 55 | 1018.6 |
| 20260831182349 | 84 | 320 | 0.0 | 0.0 | 0.00 | 0.00 | 0.00 | 54 | 1018.5 |
| 20260831181341 | 85 | 320 | 0.0 | 0.0 | 0.00 | 0.00 | 0.00 | 53 | 1018.4 |
| 20260831180841 | 85 | 320 | 0.0 | 0.0 | 0.00 | 0.00 | 0.00 | 52 | 1018.3 |
| 20260831180341 | 85 | 320 | 0.0 | 0.0 | 0.00 | 0.00 | 0.00 | 51 | 1018.2 |
| 20260831175840 | 85 | 320 | 0.0 | 0.0 | 0.00 | 0.00 | 0.00 | 51 | 1018.3 |
| 20260831174841 | 87 | 320 | 0.0 | 0.0 | 0.00 | 0.00 | 0.00 | 50 | 1018.1 |
| 20260831174339 | 87 | 320 | 0.0 | 0.0 | 0.00 | 0.00 | 0.00 | 49 | 1018.0 |
| 20260831173839 | 87 | 320 | 0.0 | 0.0 | 0.00 | 0.00 | 0.00 | 48 | 1018.0 |
| 20260831173343 | 88 | 320 | 0.0 | 0.0 | 0.00 | 0.00 | 0.00 | 48 | 1018.0 |
| 20260831172836 | 88 | 323 | 0.0 | 1.0 | 0.00 | 0.00 | 0.00 | 47 | 1018.0 |
| 20260831172330 | 88 | 324 | 0.0 | 2.0 | 0.00 | 0.00 | 0.00 | 47 | 1017.9 |
| 20260831171325 | 89 | 354 | 0.0 | 4.0 | 0.00 | 0.00 | 0.00 | 46 | 1017.9 |
| 20260831170326 | 90 | 261 | 0.0 | 3.0 | 0.00 | 0.00 | 0.00 | 46 | 1018.1 |
| 20260831165826 | 91 | 284 | 0.0 | 4.0 | 0.00 | 0.00 | 0.00 | 46 | 1018.0 |
| 20260831165325 | 91 | 293 | 0.0 | 4.0 | 0.00 | 0.00 | 0.00 | 45 | 1017.9 |
| 20260831164325 | 91 | 272 | 0.0 | 4.0 | 0.00 | 0.00 | 0.00 | 45 | 1017.9 |
| 20260831163825 | 92 | 332 | 0.0 | 3.0 | 0.00 | 0.00 | 0.00 | 45 | 1018.0 |
| 20260831163327 | 92 | 283 | 0.0 | 4.0 | 0.00 | 0.00 | 0.00 | 45 | 1018.0 |
| 20260831162825 | 92 | 293 | 0.0 | 5.0 | 0.00 | 0.00 | 0.00 | 45 | 1018.0 |
| 20260831162325 | 92 | 275 | 0.0 | 5.0 | 0.00 | 0.00 | 0.00 | 44 | 1018.0 |
| 20260831161825 | 92 | 312 | 0.0 | 4.0 | 0.00 | 0.00 | 0.00 | 45 | 1017.9 |
| 20260831161325 | 92 | 352 | 0.0 | 4.0 | 0.00 | 0.00 | 0.00 | 45 | 1018.0 |
| 20260831160830 | 92 | 264 | 0.0 | 6.0 | 0.00 | 0.00 | 0.00 | 46 | 1018.0 |
| 20260831160327 | 92 | 281 | 0.0 | 6.0 | 0.00 | 0.00 | 0.00 | 45 | 1017.9 |
| 20260831155824 | 92 | 304 | 0.0 | 4.0 | 0.00 | 0.00 | 0.00 | 45 | 1017.9 |
| 20260831155320 | 93 | 348 | 0.0 | 4.0 | 0.00 | 0.00 | 0.00 | 45 | 1018.1 |
| 20260831154813 | 93 | 344 | 0.0 | 9.0 | 0.00 | 0.00 | 0.00 | 44 | 1018.1 |
| 20260831153811 | 93 | 243 | 1.0 | 6.0 | 0.00 | 0.00 | 0.00 | 43 | 1018.1 |
| 20260831153311 | 93 | 294 | 1.0 | 6.0 | 0.00 | 0.00 | 0.00 | 42 | 1018.1 |
| 20260831152807 | 93 | 200 | 1.0 | 8.0 | 0.00 | 0.00 | 0.00 | 43 | 1018.1 |
| 20260831152307 | 93 | 13 | 0.0 | 8.0 | 0.00 | 0.00 | 0.00 | 42 | 1018.3 |
| 20260831151305 | 93 | 320 | 1.0 | 6.0 | 0.00 | 0.00 | 0.00 | 43 | 1018.3 |
| 20260831150805 | 93 | 274 | 1.0 | 6.0 | 0.00 | 0.00 | 0.00 | 43 | 1018.4 |
| 20260831150305 | 93 | 314 | 1.0 | 6.0 | 0.00 | 0.00 | 0.00 | 43 | 1018.3 |
| 20260831144805 | 93 | 258 | 0.0 | 6.0 | 0.00 | 0.00 | 0.00 | 43 | 1018.3 |
| 20260831144310 | 93 | 1 | 0.0 | 5.0 | 0.00 | 0.00 | 0.00 | 44 | 1018.4 |
| 20260831143305 | 92 | 283 | 1.0 | 7.0 | 0.00 | 0.00 | 0.00 | 46 | 1018.4 |
| 20260831142816 | 92 | 295 | 1.0 | 7.0 | 0.00 | 0.00 | 0.00 | 45 | 1018.4 |
| 20260831141804 | 92 | 269 | 2.0 | 8.0 | 0.00 | 0.00 | 0.00 | 45 | 1018.4 |
| 20260831141304 | 92 | 266 | 1.0 | 8.0 | 0.00 | 0.00 | 0.00 | 45 | 1018.4 |
| 20260831140303 | 92 | 287 | 2.0 | 9.0 | 0.00 | 0.00 | 0.00 | 45 | 1018.4 |
| 20260831135803 | 92 | 264 | 2.0 | 9.0 | 0.00 | 0.00 | 0.00 | 46 | 1018.5 |
| 20260831135306 | 92 | 258 | 1.0 | 8.0 | 0.00 | 0.00 | 0.00 | 46 | 1018.6 |
| 20260831134805 | 92 | 325 | 2.0 | 11.0 | 0.00 | 0.00 | 0.00 | 46 | 1018.7 |
| 20260831134301 | 92 | 256 | 2.0 | 11.0 | 0.00 | 0.00 | 0.00 | 45 | 1018.6 |
| 20260831133801 | 92 | 1 | 1.0 | 8.0 | 0.00 | 0.00 | 0.00 | 45 | 1018.7 |
| 20260831133257 | 92 | 222 | 1.0 | 6.0 | 0.00 | 0.00 | 0.00 | 47 | 1018.7 |
| 20260831132800 | 91 | 276 | 1.0 | 7.0 | 0.00 | 0.00 | 0.00 | 47 | 1018.7 |
| 20260831132258 | 92 | 194 | 2.0 | 10.0 | 0.00 | 0.00 | 0.00 | 46 | 1018.7 |
| 20260831131757 | 91 | 278 | 2.0 | 10.0 | 0.00 | 0.00 | 0.00 | 45 | 1018.8 |
| 20260831131257 | 92 | 317 | 1.0 | 7.0 | 0.00 | 0.00 | 0.00 | 45 | 1018.8 |
| 20260831130758 | 91 | 260 | 1.0 | 7.0 | 0.00 | 0.00 | 0.00 | 45 | 1018.9 |
| 20260831130259 | 91 | 257 | 2.0 | 10.0 | 0.00 | 0.00 | 0.00 | 45 | 1018.9 |
| 20260831125757 | 91 | 278 | 2.0 | 12.0 | 0.00 | 0.00 | 0.00 | 46 | 1018.9 |
| 20260831125258 | 91 | 328 | 2.0 | 12.0 | 0.00 | 0.00 | 0.00 | 45 | 1019.0 |
| 20260831124757 | 91 | 288 | 1.0 | 11.0 | 0.00 | 0.00 | 0.00 | 45 | 1018.9 |
| 20260831124259 | 91 | 238 | 1.0 | 11.0 | 0.00 | 0.00 | 0.00 | 45 | 1019.0 |
| 20260831123758 | 91 | 300 | 1.0 | 7.0 | 0.00 | 0.00 | 0.00 | 46 | 1019.0 |
| 20260831123258 | 91 | 281 | 1.0 | 4.0 | 0.00 | 0.00 | 0.00 | 45 | 1018.9 |
| 20260831122259 | 91 | 285 | 2.0 | 8.0 | 0.00 | 0.00 | 0.00 | 45 | 1019.0 |
| 20260831121757 | 91 | 247 | 2.0 | 12.0 | 0.00 | 0.00 | 0.00 | 46 | 1019.0 |
| 20260831121255 | 90 | 271 | 2.0 | 12.0 | 0.00 | 0.00 | 0.00 | 46 | 1019.1 |
| 20260831120756 | 90 | 226 | 1.0 | 8.0 | 0.00 | 0.00 | 0.00 | 48 | 1019.0 |
| 20260831115755 | 90 | 326 | 1.0 | 6.0 | 0.00 | 0.00 | 0.00 | 48 | 1019.0 |
| 20260831115253 | 90 | 304 | 1.0 | 6.0 | 0.00 | 0.00 | 0.00 | 47 | 1019.1 |
| 20260831114751 | 90 | 207 | 1.0 | 6.0 | 0.00 | 0.00 | 0.00 | 47 | 1019.0 |
| 20260831114251 | 89 | 1 | 1.0 | 7.0 | 0.00 | 0.00 | 0.00 | 47 | 1019.1 |
| 20260831113751 | 89 | 302 | 1.0 | 7.0 | 0.00 | 0.00 | 0.00 | 47 | 1019.1 |
| 20260831113249 | 89 | 248 | 1.0 | 5.0 | 0.00 | 0.00 | 0.00 | 46 | 1019.1 |
| 20260831112751 | 89 | 278 | 1.0 | 8.0 | 0.00 | 0.00 | 0.00 | 48 | 1019.1 |
| 20260831112249 | 88 | 229 | 1.0 | 8.0 | 0.00 | 0.00 | 0.00 | 47 | 1019.2 |
| 20260831111749 | 88 | 277 | 1.0 | 7.0 | 0.00 | 0.00 | 0.00 | 47 | 1019.2 |
| 20260831111248 | 88 | 276 | 2.0 | 7.0 | 0.00 | 0.00 | 0.00 | 47 | 1019.3 |
| 20260831110750 | 88 | 251 | 2.0 | 8.0 | 0.00 | 0.00 | 0.00 | 46 | 1019.3 |
| 20260831110251 | 88 | 283 | 1.0 | 8.0 | 0.00 | 0.00 | 0.00 | 44 | 1019.3 |
| 20260831105748 | 88 | 304 | 1.0 | 6.0 | 0.00 | 0.00 | 0.00 | 44 | 1019.3 |
| 20260831105247 | 87 | 273 | 1.0 | 8.0 | 0.00 | 0.00 | 0.00 | 44 | 1019.3 |
| 20260831104745 | 87 | 1 | 1.0 | 8.0 | 0.00 | 0.00 | 0.00 | 45 | 1019.4 |
| 20260831104246 | 87 | 253 | 1.0 | 7.0 | 0.00 | 0.00 | 0.00 | 47 | 1019.4 |
| 20260831103745 | 87 | 3 | 1.0 | 7.0 | 0.00 | 0.00 | 0.00 | 49 | 1019.4 |
| 20260831103241 | 87 | 324 | 1.0 | 5.0 | 0.00 | 0.00 | 0.00 | 51 | 1019.4 |
| 20260831102741 | 86 | 328 | 0.0 | 5.0 | 0.00 | 0.00 | 0.00 | 51 | 1019.4 |
| 20260831102241 | 86 | 309 | 1.0 | 7.0 | 0.00 | 0.00 | 0.00 | 53 | 1019.4 |
| 20260831101741 | 86 | 323 | 1.0 | 7.0 | 0.00 | 0.00 | 0.00 | 53 | 1019.6 |
| 20260831101240 | 85 | 275 | 0.0 | 6.0 | 0.00 | 0.00 | 0.00 | 57 | 1019.6 |
| 20260831100738 | 85 | 276 | 0.0 | 5.0 | 0.00 | 0.00 | 0.00 | 58 | 1019.5 |
| 20260831100238 | 85 | 276 | 1.0 | 9.0 | 0.00 | 0.00 | 0.00 | 59 | 1019.5 |
| 20260831095238 | 85 | 297 | 0.0 | 4.0 | 0.00 | 0.00 | 0.00 | 58 | 1019.6 |
| 20260831094736 | 85 | 316 | 1.0 | 5.0 | 0.00 | 0.00 | 0.00 | 57 | 1019.7 |
| 20260831093736 | 84 | 266 | 0.0 | 5.0 | 0.00 | 0.00 | 0.00 | 58 | 1019.7 |
| 20260831093234 | 83 | 288 | 1.0 | 7.0 | 0.00 | 0.00 | 0.00 | 58 | 1019.7 |
| 20260831092235 | 83 | 255 | 1.0 | 7.0 | 0.00 | 0.00 | 0.00 | 60 | 1019.8 |
| 20260831091736 | 83 | 307 | 0.0 | 5.0 | 0.00 | 0.00 | 0.00 | 64 | 1019.7 |
| 20260831090734 | 82 | 350 | 1.0 | 6.0 | 0.00 | 0.00 | 0.00 | 63 | 1019.7 |
| 20260831085728 | 82 | 276 | 1.0 | 4.0 | 0.00 | 0.00 | 0.00 | 65 | 1019.7 |
| 20260831085227 | 82 | 326 | 0.0 | 4.0 | 0.00 | 0.00 | 0.00 | 65 | 1019.8 |
| 20260831084726 | 82 | 258 | 0.0 | 3.0 | 0.00 | 0.00 | 0.00 | 65 | 1019.8 |
| 20260831084227 | 82 | 314 | 0.0 | 2.0 | 0.00 | 0.00 | 0.00 | 66 | 1019.7 |
| 20260831083726 | 82 | 283 | 1.0 | 6.0 | 0.00 | 0.00 | 0.00 | 67 | 1019.7 |
| 20260831083227 | 82 | 276 | 1.0 | 7.0 | 0.00 | 0.00 | 0.00 | 66 | 1019.7 |
| 20260831082728 | 82 | 292 | 0.0 | 7.0 | 0.00 | 0.00 | 0.00 | 66 | 1019.7 |
| 20260831082226 | 82 | 188 | 0.0 | 1.0 | 0.00 | 0.00 | 0.00 | 68 | 1019.7 |
| 20260831081726 | 81 | 199 | 0.0 | 3.0 | 0.00 | 0.00 | 0.00 | 68 | 1019.7 |
| 20260831081227 | 81 | 276 | 0.0 | 3.0 | 0.00 | 0.00 | 0.00 | 69 | 1019.7 |
| 20260831080724 | 80 | 321 | 0.0 | 0.0 | 0.00 | 0.00 | 0.00 | 71 | 1019.7 |
| 20260831080224 | 80 | 319 | 0.0 | 2.0 | 0.00 | 0.00 | 0.00 | 71 | 1019.7 |
| 20260831075726 | 79 | 317 | 0.0 | 6.0 | 0.00 | 0.00 | 0.00 | 71 | 1019.7 |
| 20260831075223 | 79 | 298 | 0.0 | 6.0 | 0.00 | 0.00 | 0.00 | 72 | 1019.7 |
| 20260831074721 | 79 | 254 | 0.0 | 4.0 | 0.00 | 0.00 | 0.00 | 73 | 1019.6 |
| 20260831074220 | 79 | 333 | 0.0 | 1.0 | 0.00 | 0.00 | 0.00 | 73 | 1019.5 |
| 20260831073221 | 78 | 336 | 0.0 | 4.0 | 0.00 | 0.00 | 0.00 | 74 | 1019.6 |
| 20260831072722 | 78 | 323 | 0.0 | 2.0 | 0.00 | 0.00 | 0.00 | 75 | 1019.5 |
| 20260831072221 | 78 | 324 | 0.0 | 4.0 | 0.00 | 0.00 | 0.00 | 75 | 1019.5 |
| 20260831071720 | 78 | 321 | 0.0 | 4.0 | 0.00 | 0.00 | 0.00 | 76 | 1019.5 |
| 20260831071219 | 78 | 303 | 0.0 | 2.0 | 0.00 | 0.00 | 0.00 | 77 | 1019.5 |
| 20260831070214 | 77 | 304 | 0.0 | 1.0 | 0.00 | 0.00 | 0.00 | 78 | 1019.3 |
| 20260831065715 | 76 | 336 | 0.0 | 1.0 | 0.00 | 0.00 | 0.00 | 78 | 1019.4 |
| 20260831065214 | 76 | 203 | 0.0 | 2.0 | 0.00 | 0.00 | 0.00 | 78 | 1019.5 |
| 20260831064715 | 76 | 201 | 0.0 | 2.0 | 0.00 | 0.00 | 0.00 | 79 | 1019.4 |
| 20260831064214 | 75 | 273 | 0.0 | 0.0 | 0.00 | 0.00 | 0.00 | 80 | 1019.4 |
| 20260831063714 | 74 | 274 | 0.0 | 0.0 | 0.00 | 0.00 | 0.00 | 81 | 1019.3 |
| 20260831063212 | 74 | 274 | 0.0 | 0.0 | 0.00 | 0.00 | 0.00 | 81 | 1019.4 |
| 20260831062714 | 73 | 274 | 0.0 | 0.0 | 0.00 | 0.00 | 0.00 | 81 | 1019.3 |
| 20260831062211 | 73 | 274 | 0.0 | 0.0 | 0.00 | 0.00 | 0.00 | 82 | 1019.3 |
| 20260831061713 | 72 | 274 | 0.0 | 0.0 | 0.00 | 0.00 | 0.00 | 84 | 1019.4 |
| 20260831061212 | 71 | 274 | 0.0 | 0.0 | 0.00 | 0.00 | 0.00 | 84 | 1019.4 |
| 20260831060209 | 70 | 274 | 0.0 | 0.0 | 0.00 | 0.00 | 0.00 | 85 | 1019.3 |
| 20260831055709 | 69 | 274 | 0.0 | 2.0 | 0.00 | 0.00 | 0.00 | 85 | 1019.3 |
| 20260831055205 | 69 | 274 | 0.0 | 2.0 | 0.00 | 0.00 | 0.00 | 85 | 1019.3 |
| 20260831054705 | 68 | 273 | 0.0 | 1.0 | 0.00 | 0.00 | 0.00 | 85 | 1019.2 |
| 20260831052702 | 67 | 274 | 0.0 | 3.0 | 0.00 | 0.00 | 0.00 | 84 | 1019.1 |
| 20260831052202 | 67 | 273 | 0.0 | 0.0 | 0.00 | 0.00 | 0.00 | 85 | 1019.1 |
| 20260831050700 | 67 | 274 | 0.0 | 0.0 | 0.00 | 0.00 | 0.00 | 84 | 1019.0 |
| 20260831050200 | 67 | 274 | 0.0 | 0.0 | 0.00 | 0.00 | 0.00 | 84 | 1018.9 |
| 20260831045702 | 66 | 274 | 0.0 | 0.0 | 0.00 | 0.00 | 0.00 | 84 | 1018.9 |
| 20260831045200 | 67 | 274 | 0.0 | 0.0 | 0.00 | 0.00 | 0.00 | 83 | 1019.0 |
| 20260831044701 | 67 | 274 | 0.0 | 0.0 | 0.00 | 0.00 | 0.00 | 83 | 1018.9 |
| 20260831043658 | 67 | 269 | 0.0 | 0.0 | 0.00 | 0.00 | 0.00 | 83 | 1019.0 |
| 20260831043159 | 67 | 269 | 0.0 | 0.0 | 0.00 | 0.00 | 0.00 | 82 | 1019.0 |
| 20260831042156 | 67 | 269 | 0.0 | 1.0 | 0.00 | 0.00 | 0.00 | 82 | 1018.9 |
| 20260831041656 | 67 | 267 | 0.0 | 1.0 | 0.00 | 0.00 | 0.00 | 82 | 1018.9 |
| 20260831041158 | 67 | 274 | 0.0 | 0.0 | 0.00 | 0.00 | 0.00 | 81 | 1018.8 |